Lapse_Rate
5.9 6.5 6.4 6.5 6.5 6.5 6.4 6.5 6.5 6.5 6.5 6.5 6.5 6.5 6.5 6.0 5.8 6.3 5.5 6.6 6.7 5.9 5.5 5.2 5.8 5.9 5.0 4.5 3.8 3.4 3.3 2.8 3.3 3.1 2.8 2.3 3.4 3.3 3.3 4.7 4.7 4.9 5.1 5.1
6.5 6.5 6.5 6.5 6.5 6.5 6.5 6.5 6.5 6.5 6.5 6.5 6.5 6.5 6.5 6.6 6.2 6.2 5.6 6.6 6.8 6.9 5.6 5.4 5.5 5.9 4.7 4.2 4.0 3.2 3.6 2.9 3.6 3.2 2.7 3.0 3.0 3.3 3.3 3.8 4.9 5.8 5.0 5.2
6.5 6.5 6.5 6.5 6.5 6.5 6.5 6.5 6.5 6.5 6.5 6.5 6.5 6.5 6.5 6.5 6.4 6.1 5.9 6.1 6.7 5.9 5.0 5.5 5.6 5.0 4.7 4.5 3.6 3.6 3.3 3.0 3.2 3.2 2.2 2.5 2.8 2.6 3.6 3.6 3.7 4.1 5.4 5.1
6.5 6.4 6.5 6.5 6.5 6.5 6.5 6.5 6.5 6.5 6.5 6.5 6.5 6.5 6.4 6.5 6.5 6.4 6.5 5.3 6.1 6.3 5.5 5.4 5.5 4.9 4.7 4.7 4.1 3.1 2.6 2.6 2.7 2.5 3.0 3.5 3.5 3.7 3.2 2.5 2.8 3.7 4.9 4.7
6.5 6.5 6.5 6.5 6.5 6.5 6.5 6.5 6.5 6.5 6.5 6.5 6.5 6.5 6.5 6.5 6.5 6.5 6.5 6.1 5.1 6.7 5.2 5.5 5.4 4.9 4.5 4.6 4.4 3.6 2.8 2.5 2.4 2.5 2.8 2.6 3.1 3.1 2.8 2.8 3.4 3.4 3.8 4.6
6.5 5.6 6.4 6.5 6.5 6.5 6.5 6.5 6.5 6.4 6.5 6.5 6.5 6.5 6.5 6.5 6.5 6.5 6.5 6.2 6.0 6.9 7.1 5.3 5.7 5.3 4.6 4.6 4.4 3.7 2.8 2.8 2.4 2.5 2.5 2.9 3.2 3.3 2.9 2.7 3.0 2.7 2.9 3.3
6.5 6.5 6.4 6.3 6.5 6.5 6.5 6.5 6.5 6.5 6.5 6.5 6.5 6.5 6.5 6.5 6.5 6.5 6.5 5.8 5.9 5.7 6.5 6.0 5.3 4.9 3.6 4.0 3.9 3.5 3.0 2.7 2.5 2.5 2.6 2.5 2.6 2.7 2.9 3.0 2.8 2.9 2.8 2.8
6.5 6.4 6.5 6.5 6.5 6.5 6.5 6.5 6.5 6.5 6.5 6.4 6.5 6.5 6.5 6.5 6.6 6.6 7.0 6.4 5.3 5.6 6.4 5.6 4.6 4.0 3.7 3.8 3.6 3.6 2.7 2.6 2.5 2.8 2.7 2.6 2.8 2.1 2.2 2.8 2.0 2.2 2.4 2.6
6.5 6.5 6.5 6.5 6.5 6.5 6.5 6.5 6.5 6.5 6.5 6.5 6.5 6.5 6.5 6.5 6.5 6.6 6.6 7.0 5.9 5.8 4.9 5.4 4.7 3.6 2.8 3.0 3.1 3.3 2.6 2.6 2.5 2.5 2.6 2.6 3.0 2.9 2.6 2.7 2.6 2.0 2.5 2.6
6.5 6.5 6.5 6.5 6.3 6.4 6.5 6.5 6.5 6.5 6.5 6.5 6.5 6.5 6.4 6.5 6.6 6.5 6.5 6.5 6.4 5.7 5.1 4.7 4.3 3.8 2.9 2.5 2.3 2.4 2.3 2.5 2.8 2.8 2.9 3.0 2.8 3.0 3.3 2.8 2.6 2.2 2.6 2.7
6.5 6.5 6.5 6.5 6.5 6.5 6.5 6.5 6.5 6.5 6.5 6.5 6.5 6.5 6.5 6.5 6.5 6.5 6.5 6.6 6.6 6.8 4.7 4.2 3.5 2.6 2.4 2.0 2.2 2.0 2.2 2.4 2.6 2.8 3.0 3.6 3.5 3.5 3.3 3.1 3.0 2.7 2.5 2.3
6.5 6.5 6.5 6.5 6.5 6.5 6.5 6.5 6.5 6.5 6.5 6.5 6.5 6.5 6.5 6.5 6.5 5.4 6.1 6.2 6.2 6.7 5.2 3.9 3.2 1.7 1.7 2.1 2.1 1.7 1.1 2.3 2.9 2.8 3.2 3.9 3.7 3.9 3.8 3.5 3.1 2.5 2.4 2.1
6.5 6.5 6.5 6.5 6.5 6.5 6.5 6.5 6.5 6.5 6.5 6.5 6.5 6.5 6.5 6.4 6.3 5.2 5.5 5.5 5.7 5.6 4.1 2.9 2.7 2.9 2.3 2.3 1.4 1.3 1.3 1.6 2.0 2.7 3.0 3.3 3.7 3.7 3.5 3.1 2.7 2.6 2.3 2.4
5.3 6.5 6.5 6.5 6.5 6.5 6.5 6.5 6.5 6.5 6.5 6.5 6.5 6.5 6.5 6.5 6.5 5.7 4.9 4.7 4.7 4.8 4.2 3.2 3.3 2.0 1.8 1.7 1.4 1.7 1.7 2.0 2.3 2.6 3.9 4.1 3.8 4.1 4.1 3.8 2.9 2.2 2.2 2.6
6.5 6.5 6.5 6.5 6.5 6.5 6.5 6.5 6.5 6.5 6.5 6.5 6.5 6.5 6.5 6.5 6.5 5.5 4.0 4.7 4.4 4.8 3.8 3.2 2.2 2.0 1.5 1.9 1.8 1.6 2.2 2.6 2.7 3.5 3.8 4.2 4.0 4.0 3.9 3.7 3.3 2.9 2.8 2.4
6.5 6.5 6.5 6.5 6.5 6.5 6.5 6.5 6.5 6.5 6.5 6.5 6.5 6.5 6.5 6.2 6.2 6.0 5.0 4.7 4.3 3.8 4.1 3.1 2.2 2.4 2.4 2.3 2.6 2.5 2.2 1.8 2.4 2.9 3.7 3.8 3.6 3.8 3.4 3.0 3.2 3.4 3.6 3.6
6.5 6.5 6.5 6.5 6.5 6.5 6.5 6.5 6.5 6.5 6.5 6.5 6.5 6.5 6.6 6.5 6.4 5.9 5.7 5.5 5.8 5.5 4.6 3.4 3.0 1.8 2.3 2.8 3.1 3.0 2.7 2.5 2.3 3.0 2.9 3.6 3.6 3.3 3.0 3.0 3.4 3.5 3.5 2.8
6.5 6.5 6.6 6.5 6.5 6.5 6.5 6.5 6.5 6.5 6.5 6.5 6.5 6.5 6.5 6.6 5.9 5.6 5.2 5.5 5.7 5.1 4.8 4.0 3.5 2.9 1.8 1.6 1.8 2.8 3.5 4.1 4.2 4.1 3.0 3.1 3.5 3.5 3.0 3.2 3.3 2.8 2.5 1.1
6.2 6.5 6.5 6.5 6.5 6.5 6.6 6.5 6.5 6.5 6.5 6.5 6.5 6.5 6.8 6.6 6.4 6.4 4.9 4.3 3.7 3.9 3.6 3.6 3.0 2.4 2.0 1.0 0.6 2.1 2.5 4.0 3.9 4.1 3.6 3.9 3.9 2.9 2.7 2.9 3.0 2.6 1.7 0.5
6.5 6.5 6.5 6.5 6.5 6.5 6.5 6.5 6.1 6.3 6.5 6.5 6.4 6.6 6.2 5.6 6.5 6.5 5.0 3.8 2.7 2.3 2.4 3.2 2.9 2.6 2.3 2.2 2.1 1.3 2.3 3.1 4.1 3.5 4.6 3.5 3.4 3.0 2.8 2.7 2.9 2.8 2.5 1.9
6.5 6.5 6.5 6.5 6.5 6.5 6.5 6.1 6.1 6.5 6.5 5.8 6.4 6.4 5.7 6.5 5.8 4.7 4.3 3.9 2.7 2.4 2.9 3.6 2.7 2.1 2.2 2.3 1.8 1.5 1.3 1.3 1.9 2.1 2.0 1.9 2.0 2.2 2.4 2.3 2.5 3.5 2.8 1.7
6.5 6.5 6.5 6.5 6.5 6.5 6.0 6.4 6.5 5.7 5.4 5.4 5.6 5.7 4.5 4.2 5.2 4.0 2.8 3.3 2.9 3.3 4.0 4.0 2.8 2.1 1.9 1.8 1.8 1.2 1.0 1.2 1.7 2.2 2.1 1.5 1.4 1.9 2.2 3.1 3.0 3.0 2.8 3.0
6.5 6.5 6.5 6.5 6.5 5.0 4.4 5.4 4.9 3.8 3.5 5.0 4.9 4.8 4.3 5.3 4.9 4.1 4.2 2.7 3.8 3.6 3.7 3.3 2.8 2.5 2.2 2.3 2.3 1.3 1.0 1.1 1.4 1.5 1.5 1.4 1.0 1.0 1.1 1.8 3.0 3.0 3.8 3.9
6.5 5.4 6.5 6.5 6.5 6.4 4.1 3.2 3.7 5.0 4.6 3.6 3.3 3.4 4.3 3.8 4.5 3.0 3.5 3.6 2.7 2.7 2.9 3.4 3.4 2.6 2.0 1.2 1.2 1.2 0.9 1.1 1.2 1.6 1.9 1.9 1.5 1.3 1.6 1.4 2.0 3.1 3.6 3.7
5.7 5.8 6.6 6.5 6.3 5.0 5.9 5.6 4.3 3.7 3.3 4.0 3.3 3.3 3.9 3.6 3.7 3.4 3.2 2.4 2.7 2.0 1.5 1.7 1.6 1.4 1.1 0.3 0.4 0.4 0.4 0.5 0.3 0.2 0.1 -0.3 -0.5 -1.0 -1.8 -2.9 -1.3 -0.2 -2.6 -1.2
4.3 6.5 6.5 6.5 3.8 4.0 4.1 5.0 4.2 3.4 3.4 3.4 3.7 4.1 3.9 3.6 3.4 3.9 3.4 2.7 2.2 1.7 1.7 1.4 1.0 1.1 0.5 -0.1 -0.1 -0.1 -0.4 -0.1 0.1 0.2 0.0 -0.3 -0.6 -1.3 -1.7 -1.8 -1.8 -2.6 -2.7 -3.5
Wind_Speed
1 3 5 8 4 4 5 5 10 3 3 3 3 3 9 9 3 11 10 17 17 20 14 15 14 13 11 7 8 9 9 6 7 2 3 4 3 1 1 4 3 6 8 6
4 5 7 2 3 2 9 9 4 4 3 1 5 9 6 9 4 2 7 18 19 15 15 14 13 12 12 12 10 8 10 7 5 3 2 3 3 2 1 2 3 3 4 4
6 6 4 4 2 4 2 6 7 6 6 3 1 3 4 6 1 4 4 11 19 20 19 16 15 14 12 12 11 11 10 9 6 6 4 3 3 3 2 1 1 1 2 4
4 6 6 5 5 6 5 6 8 14 6 2 1 3 6 7 6 4 3 4 14 20 18 19 16 15 14 13 8 8 7 8 7 8 6 5 4 3 3 2 1 1 1 3
7 4 4 6 9 7 4 12 11 5 4 5 5 2 3 9 7 7 8 6 7 20 22 22 20 17 14 11 11 9 8 7 7 8 8 5 4 3 2 2 3 2 1 0
8 4 5 6 1 13 17 9 6 0 2 2 5 3 4 7 19 13 7 7 7 15 18 19 17 14 12 9 9 8 8 7 7 7 7 8 7 5 3 3 3 3 2 3
5 1 3 7 12 5 6 5 2 1 2 3 4 2 9 9 9 18 14 7 9 7 15 15 14 13 10 12 11 10 10 8 7 8 7 8 8 7 7 6 4 4 3 2
1 3 7 5 6 10 7 6 5 6 4 3 3 5 5 6 9 15 5 8 10 8 14 16 17 14 14 15 13 11 10 7 7 7 7 6 7 4 4 4 4 4 4 3
2 5 4 4 5 10 6 4 4 7 3 3 3 6 5 9 5 15 20 23 15 10 7 16 14 14 12 12 14 14 12 8 8 8 6 6 5 5 5 6 4 3 4 3
2 4 4 2 4 2 7 6 2 2 5 3 4 6 4 8 11 12 14 20 20 22 11 7 12 15 13 13 11 10 11 11 8 7 5 5 6 6 5 4 6 4 3 2
1 4 7 3 4 7 1 2 5 5 4 5 3 6 8 14 13 15 14 19 19 20 18 10 7 11 13 12 12 11 10 9 8 6 6 6 5 5 4 5 5 5 4 3
1 3 4 8 2 5 2 0 4 5 4 2 4 6 4 8 7 10 12 14 13 16 15 15 9 7 11 12 11 11 7 6 7 7 6 4 3 1 4 5 6 5 5 4
1 3 4 8 6 7 5 5 1 3 4 5 5 6 2 8 8 7 10 9 13 13 12 9 8 9 10 9 8 7 7 5 5 7 8 7 5 4 6 7 5 5 5 5
2 3 4 5 4 1 4 7 4 5 4 3 6 6 1 5 10 7 8 9 12 15 15 12 9 7 5 6 6 6 8 7 6 6 7 6 4 5 8 5 5 5 3 1
3 2 1 4 1 6 0 5 9 6 3 5 4 6 5 2 7 7 8 10 12 14 18 15 11 9 8 6 6 5 5 8 6 7 7 8 8 11 10 6 6 4 3 4
6 5 3 2 2 8 3 10 6 6 6 5 6 5 5 6 5 5 7 11 13 14 13 11 14 10 10 9 8 7 6 5 6 7 8 6 7 10 9 4 6 5 4 2
2 2 3 4 6 8 4 5 6 1 5 4 5 2 6 7 9 8 9 8 9 4 6 6 3 7 10 9 6 5 6 7 6 6 7 6 5 5 6 5 5 4 4 5
3 4 3 2 4 5 4 2 4 2 2 6 5 5 6 6 10 13 10 9 8 9 8 6 5 4 4 3 5 6 6 6 6 5 5 5 7 6 5 5 5 4 4 5
2 4 3 3 1 5 3 3 1 2 3 3 3 8 9 11 14 12 13 11 9 7 7 6 5 4 5 6 5 5 6 5 7 6 7 8 8 7 6 5 5 3 5 5
3 7 4 2 3 6 5 1 2 4 3 2 4 7 7 2 7 3 8 7 7 7 5 6 5 4 6 6 4 7 4 6 5 8 8 5 6 7 6 6 5 2 4 5
3 3 3 2 2 6 6 5 2 3 5 5 3 9 6 7 4 7 7 6 4 5 5 6 7 6 5 5 5 7 8 8 5 4 5 8 7 5 5 4 2 2 5 7
4 4 3 2 1 3 1 2 4 5 2 7 4 5 15 13 11 12 13 4 4 5 5 7 7 7 6 6 7 7 9 3 5 6 6 7 5 4 4 5 3 4 5 6
2 6 4 6 5 5 5 4 3 4 4 4 6 6 6 8 8 6 7 10 4 5 4 6 7 7 6 6 5 6 3 5 5 6 6 5 6 5 4 5 3 3 3 3
3 3 2 2 2 1 4 4 4 2 4 6 4 10 6 8 7 8 4 8 8 6 4 4 7 6 5 5 6 5 5 5 6 6 5 4 5 5 5 3 3 3 3 2
5 5 3 1 2 4 3 3 6 6 6 7 6 7 7 8 6 6 4 5 3 4 4 4 6 5 5 5 6 4 4 4 5 5 4 4 4 5 4 4 3 3 4 3
4 6 4 5 8 5 6 4 5 9 6 6 6 5 4 6 8 6 5 5 7 6 5 4 6 7 6 5 5 4 4 5 5 4 2 2 3 3 3 3 2 6 6 6
Wind_Direction
0 90 222 242 118 156 83 74 107 102 107 38 264 299 303 327 223 201 164 162 167 171 175 171 172 173 162 173 149 149 140 148 136 130 111 74 140 155 201 192 237 168 168 169
11 232 227 223 201 262 122 121 111 115 165 209 212 248 250 292 278 327 192 170 173 157 164 172 172 178 176 178 169 160 152 162 152 133 135 135 149 150 128 158 120 135 173 166
170 234 122 179 137 117 130 146 182 146 160 161 214 322 238 249 214 311 323 173 171 162 168 173 177 181 180 182 173 171 164 163 162 142 108 79 61 49 48 10 107 178 165 153
247 279 231 204 203 134 189 179 165 133 140 178 180 269 207 212 217 230 255 206 171 169 169 171 178 182 186 187 174 164 160 161 155 152 136 152 165 158 203 155 236 171 58 201
257 282 243 226 218 152 190 128 135 151 118 125 193 263 229 202 208 221 225 211 187 174 170 176 183 179 189 174 177 165 167 163 158 165 159 156 166 175 169 148 200 206 268 249
235 242 190 215 4 162 127 106 105 189 130 62 166 193 242 197 216 202 208 191 202 180 181 177 177 173 176 170 168 168 168 180 169 172 164 164 182 186 170 184 209 227 210 240
326 308 78 100 76 33 95 132 58 358 42 219 148 178 246 217 217 197 168 181 189 181 178 176 165 173 165 173 176 177 177 183 188 178 177 177 182 183 195 194 204 198 201 212
100 343 190 156 167 180 181 163 157 190 168 185 175 223 253 157 194 183 205 191 178 187 188 179 174 175 179 177 178 180 185 185 185 188 201 186 184 188 193 201 200 207 212 212
32 276 246 196 157 157 208 205 198 111 17 89 228 276 294 238 187 167 207 210 182 200 201 182 178 179 175 177 179 187 183 195 189 194 189 191 191 189 191 199 204 223 203 205
285 272 242 249 102 268 177 160 105 8 149 183 280 283 232 170 190 192 195 188 188 184 174 169 181 185 186 176 182 175 184 185 189 180 187 199 187 195 221 205 205 208 241 211
149 159 282 167 191 190 201 231 47 116 137 153 180 262 213 207 184 180 184 182 177 175 161 170 193 187 182 166 171 170 176 172 176 175 174 188 202 196 205 206 214 194 193 200
131 159 267 230 286 242 109 174 143 133 218 196 175 268 359 141 160 155 180 173 174 182 174 162 164 169 167 169 171 164 141 158 177 163 162 179 156 84 224 215 221 202 195 184
140 13 350 348 2 22 36 327 313 130 74 196 150 265 20 109 110 148 155 160 154 155 154 137 137 185 178 173 158 142 143 167 199 166 152 147 131 45 294 268 228 203 209 224
103 111 165 190 170 300 348 325 322 138 120 214 219 275 188 159 123 143 151 163 158 155 164 157 177 171 179 175 174 186 169 155 172 177 141 142 157 223 253 252 226 219 201 234
133 131 274 251 125 117 105 18 21 48 51 196 278 225 343 20 129 142 144 142 139 160 160 165 179 172 185 186 185 164 192 153 144 173 161 193 192 208 238 210 208 221 200 221
344 169 93 287 294 61 53 4 76 57 346 302 357 27 339 8 23 107 145 155 165 174 177 186 189 178 175 171 180 166 162 130 149 173 195 193 210 212 215 198 198 176 201 186
44 114 101 266 341 59 343 343 10 81 19 294 23 294 34 24 40 31 41 66 79 96 82 84 101 160 159 166 180 144 141 137 146 165 157 146 167 188 186 189 187 188 177 139
155 93 39 193 338 168 232 201 266 120 43 350 61 73 83 95 76 56 49 71 68 88 86 94 85 87 47 353 90 147 137 145 140 145 185 181 182 175 162 164 172 154 140 138
221 112 81 131 79 303 310 271 143 136 21 326 68 125 128 100 80 44 38 44 52 66 79 76 77 60 50 32 27 118 149 173 143 165 196 190 168 152 144 141 148 106 120 121
33 66 107 79 152 204 232 213 215 99 340 124 118 114 149 172 91 43 40 37 54 53 54 68 77 66 63 41 60 76 120 151 160 264 205 151 150 147 143 147 135 103 121 110
18 11 101 144 220 288 255 255 34 119 221 141 178 134 122 98 137 140 95 62 33 42 60 72 59 55 44 53 56 88 81 72 66 68 53 74 59 77 92 90 58 204 138 117
173 141 191 92 135 274 257 359 202 213 113 138 153 109 124 129 134 143 125 123 105 111 92 78 72 51 33 44 70 69 74 67 81 78 81 81 76 70 66 82 91 117 132 131
228 185 182 175 213 249 264 213 285 160 125 143 135 148 139 142 143 124 130 120 150 141 92 101 92 82 46 42 69 81 62 82 89 85 82 70 73 67 66 73 54 78 90 135
266 139 156 111 341 4 86 7 13 43 148 136 118 132 142 126 147 105 127 148 144 139 124 105 101 86 72 50 68 93 91 81 81 83 76 79 83 71 49 58 54 92 91 100
196 131 160 64 95 79 313 265 153 99 99 113 131 131 132 131 126 131 159 106 94 114 117 130 117 110 106 102 99 86 72 68 81 88 90 81 74 75 75 54 24 48 35 11
184 171 150 221 193 155 193 198 182 114 106 125 134 129 143 153 142 134 148 175 157 148 155 144 136 132 147 141 147 153 145 120 113 101 98 103 108 107 102 116 90 54 52 31